CAPE
1 1 1 0 0 1 0 0 0 0 0 0 0 0 0 0 0 0 0 0 0 0 0 0 0 0 0 0 0 3 26 9 11 4 99 413 317 699 935 955 1090 994 703 1002 1123
1 0 1 1 1 1 1 0 0 0 0 0 0 0 0 0 0 0 0 0 0 0 0 0 0 0 0 0 0 0 12 1 17 35 60 327 358 749 832 895 1164 813 978 1030 1107
1 1 0 1 1 1 1 0 0 0 0 0 0 0 0 0 0 0 0 0 0 0 0 0 0 0 0 0 0 1 11 13 45 77 258 241 601 676 397 338 756 934 1026 1026 1029
1 1 1 0 1 1 1 0 0 0 0 0 0 0 0 0 0 0 0 0 0 0 0 0 0 0 0 0 0 0 6 22 77 208 290 249 660 743 318 370 583 793 968 945 958
1 2 2 2 1 1 0 0 0 0 0 0 0 0 0 0 0 0 0 0 0 0 0 0 0 0 0 0 0 0 0 3 75 223 253 347 596 966 620 507 704 819 875 792 747
1 1 1 1 1 1 0 0 0 0 0 0 0 0 0 0 0 0 0 0 0 0 0 0 0 0 0 0 0 0 0 9 127 272 286 410 614 897 1014 552 665 747 786 779 734
1 1 1 1 1 1 0 0 0 0 0 0 0 0 0 0 0 0 0 0 0 0 0 0 0 0 0 0 0 0 0 9 72 245 322 364 343 502 1106 643 658 710 757 845 961
1 1 1 1 1 0 0 0 0 0 0 0 0 0 0 0 0 0 0 0 0 0 0 0 0 0 0 0 0 0 0 15 19 192 326 245 110 985 1207 850 675 632 746 875 1041
1 1 1 1 1 1 0 0 0 0 0 0 0 0 0 0 0 0 0 0 0 0 0 0 0 0 0 0 0 0 7 0 2 39 62 73 51 667 1261 1157 710 679 643 778 914
1 1 1 1 1 0 0 0 0 0 0 0 0 0 0 0 0 0 0 0 0 0 0 0 0 0 0 13 25 2 10 0 0 9 81 46 18 505 1079 1251 1110 700 612 731 767
1 0 1 1 1 0 0 0 0 0 0 0 0 0 0 0 0 0 0 0 0 0 0 0 0 7 8 0 0 0 0 0 0 0 59 66 26 124 783 943 1026 1083 729 720 719
0 0 0 0 1 0 0 0 0 0 0 0 0 0 0 0 0 0 0 0 0 0 0 0 1 2 0 0 0 0 0 0 0 0 46 23 4 46 226 684 734 805 1163 913 933
0 0 1 0 0 0 0 0 0 0 0 0 0 0 0 0 0 0 0 0 0 0 0 1 9 0 0 4 0 4 1 0 1 0 0 0 0 22 187 404 804 781 935 1166 1247
1 1 1 0 0 0 0 0 0 0 0 0 0 0 0 0 0 0 0 0 0 0 0 0 2 0 0 7 0 26 0 0 0 0 3 0 3 4 136 246 584 842 969 1108 1274
1 1 1 1 0 0 0 0 0 0 0 0 0 0 0 0 0 0 0 0 0 0 0 1 0 0 12 18 0 2 0 0 0 0 0 0 0 102 165 472 823 1121 1140 833 1175
1 1 1 0 0 0 0 0 0 0 0 0 0 0 0 0 0 0 0 0 0 0 0 5 0 0 9 0 0 0 0 0 0 0 7 0 1 42 284 450 457 836 1233 892 1065
0 1 1 0 0 0 0 0 0 0 0 0 0 0 0 0 0 0 0 0 0 0 0 2 0 0 0 0 0 0 12 10 22 21 48 13 50 294 383 357 346 719 1373 1290 1312
0 0 0 0 0 0 0 0 0 0 0 0 0 0 0 0 0 0 0 0 0 0 0 0 0 0 0 0 15 8 18 30 23 6 27 87 110 397 485 655 722 1170 1316 1452 1586
0 0 0 0 0 0 0 0 0 0 0 0 0 0 0 0 0 0 0 0 0 0 0 0 0 0 0 0 0 3 0 0 0 0 0 109 90 273 403 604 882 1438 1637 1651 1806
0 0 0 0 0 0 0 0 0 0 0 0 0 0 0 0 0 0 0 0 0 0 0 0 22 0 0 0 0 0 0 4 0 23 5 83 53 73 551 666 981 1509 1680 1650 1624
0 0 0 0 0 0 0 0 0 0 0 0 0 0 0 0 0 0 0 0 0 0 0 0 5 0 0 2 2 0 0 0 3 0 33 59 116 449 608 691 818 1597 1598 1404 1891
0 0 0 0 0 0 0 0 0 0 0 0 0 0 0 0 0 0 0 0 0 0 0 0 2 8 52 7 0 0 30 24 57 127 52 36 124 621 653 507 928 1592 1463 920 1499
0 0 0 0 0 0 0 0 0 0 0 0 0 0 0 0 0 0 0 0 0 0 0 0 0 32 43 80 143 165 183 63 14 7 47 51 328 909 832 771 836 1541 1421 1255 1373
0 0 0 0 0 0 0 0 0 0 0 0 0 0 0 0 0 0 0 0 0 0 0 0 10 22 64 114 97 89 148 79 7 37 144 88 197 946 1079 1119 1157 1281 1341 1508 1344
0 0 0 0 0 0 0 0 0 0 0 0 0 0 0 0 0 0 0 0 0 0 0 0 4 0 6 14 78 129 182 142 69 95 4 56 67 773 1173 1486 1615 1438 1134 586 442
11 222 0 0 0 0 0 0 0 0 0 0 0 0 0 0 0 0 0 0 0 0 0 0 23 16 84 146 176 186 206 170 189 183 84 119 207 519 1211 791 746 612 462 338 112
0 0 0 0 46 0 0 0 0 44 102 3 0 0 0 0 0 0 0 0 0 0 0 0 102 89 90 176 182 166 216 132 127 106 88 29 578 693 706 614 374 253 184 85 9
CIN
0 0 0 0 0 0 0 0 0 0 0 0 0 0 0 0 0 0 0 0 0 0 0 0 0 0 0 0 0 -72 -3 -5 -3 -2 -37 -31 -26 -34 -13 -6 -14 -14 -10 -29 -61
0 0 0 0 0 0 0 0 0 0 0 0 0 0 0 0 0 0 0 0 0 0 0 0 0 0 0 0 0 -9 -2 0 -9 -1 -13 -27 -24 -41 -15 -13 -13 -47 -46 -58 -60
0 0 0 0 0 0 0 0 0 0 0 0 0 0 0 0 0 0 0 0 0 0 0 0 0 0 0 0 0 -2 -2 -8 -13 -47 -15 -34 -41 -46 -9 -33 -44 -57 -66 -52 -45
0 0 0 0 0 0 0 0 0 0 0 0 0 0 0 0 0 0 0 0 0 0 0 0 0 0 0 0 0 0 -29 -20 -39 -30 -27 -19 -34 -47 -61 -74 -97 -114 -84 -62 -35
0 0 0 0 0 0 0 0 0 0 0 0 0 0 0 0 0 0 0 0 0 0 0 0 0 0 0 0 0 0 0 -8 -63 -33 -29 -39 -26 -38 -82 -115 -122 -143 -111 -62 -22
0 0 0 0 0 0 0 0 0 0 0 0 0 0 0 0 0 0 0 0 0 0 0 0 0 0 0 0 0 0 0 -10 -37 -37 -37 -29 -47 -31 -89 -142 -140 -143 -115 -56 -16
0 0 0 0 0 0 0 0 0 0 0 0 0 0 0 0 0 0 0 0 0 0 0 0 0 0 0 0 0 0 0 -4 -55 -25 -25 -36 -39 -16 -80 -131 -129 -119 -103 -72 -14
0 0 0 0 0 0 0 0 0 0 0 0 0 0 0 0 0 0 0 0 0 0 0 0 0 0 0 0 0 0 0 -2 -13 -27 -28 -27 -9 -52 -90 -83 -99 -101 -94 -79 -38
0 0 0 0 0 0 0 0 0 0 0 0 0 0 0 0 0 0 0 0 0 0 0 0 0 0 0 0 0 0 -2 -1 -1 -40 -16 -20 -4 -56 -76 -61 -62 -80 -72 -72 -49
0 0 0 0 0 0 0 0 0 0 0 0 0 0 0 0 0 0 0 0 0 0 0 0 0 0 0 -5 -4 -2 -4 0 -1 -10 -70 -9 -4 -58 -74 -48 -39 -49 -49 -44 -26
0 0 0 0 0 0 0 0 0 0 0 0 0 0 0 0 0 0 0 0 0 0 0 0 0 -5 -6 0 0 0 0 0 0 0 -22 -8 -7 -27 -74 -62 -46 -25 -34 -16 -5
0 0 0 0 0 0 0 0 0 0 0 0 0 0 0 0 0 0 0 0 0 0 0 0 -3 -2 0 0 0 0 0 0 0 -1 -18 -10 -5 -20 -57 -62 -65 -39 -7 -5 -3
0 0 0 0 0 0 0 0 0 0 0 0 0 0 0 0 0 0 0 0 0 0 0 -1 -5 0 0 -9 0 -3 -2 0 0 0 0 0 0 -23 -106 -110 -92 -72 -34 -4 -8
0 0 0 0 0 0 0 0 0 0 0 0 0 0 0 0 0 0 0 0 0 0 0 0 -7 0 0 -1 0 -5 0 0 0 0 -2 0 -3 -15 -58 -53 -103 -67 -61 -38 -27
0 0 0 0 0 0 0 0 0 0 0 0 0 0 0 0 0 0 0 0 0 0 0 -2 0 0 -7 -3 0 -22 0 0 0 0 0 0 0 -21 -21 -22 -51 -79 -105 -70 -31
0 0 0 0 0 0 0 0 0 0 0 0 0 0 0 0 0 0 0 0 0 0 0 -5 0 0 -8 0 0 0 0 0 0 0 -6 0 -3 -8 -12 -35 -59 -81 -123 -104 -58
0 0 0 0 0 0 0 0 0 0 0 0 0 0 0 0 0 0 0 0 0 0 0 -2 0 0 0 0 0 0 -5 -7 -5 -4 -6 -18 -15 -10 -35 -85 -105 -89 -96 -118 -109
0 0 0 0 0 0 0 0 0 0 0 0 0 0 0 0 0 0 0 0 0 0 0 0 0 0 0 0 -7 -6 -3 -6 -2 -3 -6 -14 -2 -3 -48 -111 -133 -113 -90 -93 -91
0 0 0 0 0 0 0 0 0 0 0 0 0 0 0 0 0 0 0 0 0 0 0 0 0 0 0 0 0 -1 0 0 0 0 0 -4 -4 -16 -59 -67 -110 -103 -89 -88 -68
0 0 0 0 0 0 0 0 0 0 0 0 0 0 0 0 0 0 0 0 0 0 0 0 -4 0 0 0 0 0 0 -2 0 -3 -4 -5 -4 -6 -22 -41 -99 -78 -74 -103 -105
0 0 0 0 0 0 0 0 0 0 0 0 0 0 0 0 0 0 0 0 0 0 0 0 -7 0 0 -8 -2 0 0 0 -1 0 -5 -5 -4 -31 -41 -51 -71 -81 -88 -95 -83
0 0 0 0 0 0 0 0 0 0 0 0 0 0 0 0 0 0 0 0 0 0 0 0 -2 -6 -4 -43 0 0 -3 -3 -6 -15 -5 -15 -7 -129 -130 -87 -83 -86 -94 -143 -89
0 0 0 0 0 0 0 0 0 0 0 0 0 0 0 0 0 0 0 0 0 0 0 0 -2 -7 -14 -27 -45 -2 -8 -4 -5 -5 -4 -4 -14 -103 -96 -105 -99 -80 -88 -117 -91
0 0 0 0 0 0 0 0 0 0 0 0 0 0 0 0 0 0 0 0 0 0 0 0 -7 -8 -9 -3 -14 -5 -17 -12 -2 -2 -5 -5 -4 -48 -91 -122 -129 -111 -107 -71 -108
0 0 0 0 0 0 0 0 0 0 0 0 0 0 0 0 0 0 0 0 0 0 0 0 -5 0 -29 -26 -10 -5 -17 -19 -16 -17 -46 -15 -27 -63 -118 -90 -75 -84 -133 -219 -251
-11 -63 -1 0 0 0 0 0 0 0 0 0 0 0 0 0 0 0 0 0 0 0 0 0 -11 -24 -29 -33 -15 -20 -30 -31 -45 -50 -62 -59 -39 -158 -126 -171 -166 -207 -242 -274 -341
0 0 0 -54 -83 0 0 0 0 -145 -119 -38 0 0 0 0 0 0 0 0 0 0 0 0 -23 -30 -4 -27 -20 -16 -29 -49 -72 -107 -119 -142 -53 -117 -145 -171 -234 -270 -287 -310 -265
Wind_Speed
23 23 23 23 23 23 23 23 22 22 22 22 21 21 21 22 22 18 21 11 17 16 16 13 14 15 18 20 17 17 25 29 30 31 30 26 28 25 24 26 25 21 24 25 28
23 24 24 24 24 24 24 23 23 23 22 22 22 22 21 22 22 23 18 22 22 18 16 13 10 9 18 19 19 19 25 27 24 26 28 26 25 28 26 26 26 28 27 28 28
23 24 25 25 25 25 24 24 23 23 23 22 22 22 21 20 21 6 16 21 22 20 17 14 12 13 18 19 20 21 23 23 24 13 20 25 28 25 24 25 24 27 29 29 29
24 25 25 25 26 25 25 25 24 23 23 23 23 23 22 16 12 10 15 15 15 21 18 16 15 12 18 20 19 20 19 16 10 20 21 23 25 29 12 27 29 30 30 28 27
24 25 25 26 26 26 26 25 24 23 23 23 23 22 18 15 16 9 14 9 7 22 20 17 14 11 17 17 19 19 19 17 11 21 22 22 20 25 25 29 31 30 29 28 27
25 25 26 26 26 26 26 25 24 24 23 23 22 22 18 18 12 8 13 11 9 23 21 18 15 16 15 16 16 16 18 19 20 20 20 19 22 17 22 27 28 28 27 27 26
25 26 26 26 26 26 26 25 24 23 23 22 21 19 21 18 13 11 18 17 14 26 23 20 18 8 14 15 15 16 17 18 18 18 17 18 20 17 23 24 25 25 25 25 25
26 26 26 26 26 26 26 25 25 24 23 21 20 19 22 15 15 21 21 21 17 22 25 18 20 17 14 16 15 16 16 16 16 16 15 16 19 20 22 22 21 22 23 23 24
27 27 27 27 26 26 25 25 25 23 21 20 19 19 20 14 16 15 15 15 7 11 19 16 13 14 12 14 14 14 16 16 15 15 13 15 17 17 20 20 18 19 20 21 21
27 28 28 27 27 25 25 22 17 18 18 18 20 20 20 15 14 14 12 15 9 4 8 7 8 7 8 13 9 13 13 14 11 14 15 16 12 15 16 17 17 16 16 18 19
28 28 28 28 27 25 21 17 18 18 20 21 17 20 14 19 15 14 9 10 11 6 6 4 1 7 11 12 15 18 11 13 13 13 14 14 15 13 12 14 14 15 14 15 15
29 29 29 28 26 24 19 19 19 18 23 25 27 25 23 19 17 13 10 11 13 10 10 8 6 10 10 13 13 14 15 14 15 14 13 13 10 12 12 10 12 13 12 13 14
29 29 29 28 26 19 19 19 17 20 22 19 22 24 20 17 19 10 11 15 17 16 10 8 6 9 14 12 12 8 12 13 14 15 13 12 8 10 13 14 10 12 10 11 12
29 29 28 28 20 18 18 16 19 18 22 17 21 20 17 18 21 16 19 15 18 20 12 11 7 12 14 18 15 5 10 12 13 10 18 13 16 12 13 16 14 12 10 10 11
29 29 28 23 20 17 15 17 16 15 23 14 16 14 13 16 9 15 16 18 19 19 16 12 13 11 16 16 16 13 10 12 14 15 7 13 10 13 14 15 15 15 12 7 11
30 30 28 17 17 19 16 17 16 19 25 16 15 18 15 19 16 7 13 22 23 21 18 11 12 14 16 13 17 10 10 12 14 17 12 15 12 12 16 17 16 16 15 12 8
31 31 22 17 15 14 16 16 18 24 16 18 17 16 17 15 14 9 11 11 13 11 12 16 9 11 14 16 14 10 8 14 15 11 15 15 12 18 16 16 17 16 13 13 12
32 26 14 17 16 16 16 20 23 19 19 16 18 18 20 14 14 15 13 13 20 23 10 16 12 11 13 24 19 11 22 20 18 17 13 13 14 13 15 17 16 14 13 15 16
28 17 17 16 14 16 20 26 20 19 17 17 17 20 21 17 18 17 17 15 18 26 10 11 7 8 14 15 23 11 14 20 22 15 18 12 13 10 13 14 14 13 11 12 13
22 18 14 13 6 19 27 30 21 19 18 19 22 26 23 20 20 17 17 19 14 16 21 7 6 4 8 11 17 22 15 13 11 13 15 12 15 19 13 11 11 11 10 10 11
17 18 15 10 12 24 32 30 25 21 18 19 22 24 31 25 24 21 20 18 13 10 16 7 7 1 5 12 10 11 10 17 19 19 20 17 13 15 14 12 9 9 9 9 9
19 18 13 3 21 30 35 31 22 25 20 23 23 25 26 23 24 23 21 20 12 14 9 9 6 5 4 12 17 18 16 13 15 9 14 22 21 17 16 11 10 8 7 8 10
19 16 12 20 26 29 32 32 32 31 28 22 22 25 23 22 20 20 18 16 11 13 10 7 4 4 3 5 10 12 13 19 21 21 19 23 18 17 16 13 9 7 7 7 9
19 17 16 25 28 26 29 32 30 24 27 28 26 24 21 22 19 21 21 13 17 14 23 20 13 17 7 7 3 9 10 15 23 23 18 17 15 18 17 14 11 9 8 9 11
19 19 18 27 35 33 26 23 26 25 25 21 23 30 22 20 20 20 10 7 14 18 18 24 11 20 17 14 14 13 11 13 20 22 18 24 23 18 14 12 10 9 8 9 11
21 20 20 22 27 34 33 30 29 26 25 23 26 22 29 28 22 15 8 10 11 16 18 26 15 13 14 15 10 12 13 17 19 20 26 25 15 15 12 12 11 10 10 11 13
19 20 21 20 23 30 33 32 25 22 24 29 24 25 29 36 28 18 16 16 8 11 11 13 13 13 11 12 11 12 14 18 21 21 24 22 17 11 11 11 11 11 10 12 14
Wind_Direction
297 295 293 291 287 284 281 278 273 271 270 269 271 268 269 264 253 167 181 191 170 123 139 141 119 93 90 97 137 132 79 63 56 48 57 92 61 86 89 85 75 97 90 105 115
300 297 295 292 290 287 283 279 276 274 274 271 270 270 274 271 240 198 238 230 193 150 153 162 165 164 105 107 118 109 76 62 69 59 63 87 92 81 86 84 89 76 80 105 115
304 300 297 294 291 288 285 283 279 275 274 272 271 271 273 269 242 318 281 239 164 152 172 168 157 140 108 111 107 98 82 78 65 149 115 91 82 91 96 88 96 97 100 112 122
307 305 301 297 293 290 286 282 281 280 277 274 273 273 271 287 289 296 279 269 119 152 170 160 142 163 105 91 104 99 95 124 138 110 115 105 95 82 122 89 92 102 105 111 119
310 307 303 299 296 292 287 284 281 280 280 278 274 276 285 287 280 307 273 292 77 152 165 176 167 196 18 100 99 95 97 124 192 116 117 120 114 94 103 86 90 97 105 108 115
312 309 306 301 297 292 288 284 282 281 280 281 278 274 280 273 301 312 279 275 281 165 182 178 293 304 124 112 107 105 107 118 111 119 133 121 104 134 112 97 94 96 100 109 113
312 310 307 304 298 292 286 281 280 278 277 280 280 280 269 269 297 291 266 262 270 215 205 221 233 37 255 106 126 113 106 100 112 98 101 149 116 133 102 103 99 105 105 108 117
312 311 308 304 299 292 284 277 274 273 274 277 280 277 266 286 286 259 261 256 260 250 224 261 233 207 121 163 121 106 105 103 86 108 102 166 57 86 111 109 100 109 111 109 118
314 312 309 305 299 293 283 273 268 269 274 278 277 270 267 286 269 275 272 269 271 273 255 274 306 326 107 129 110 108 48 77 83 117 106 143 48 85 122 129 107 108 113 115 118
318 314 311 307 301 293 281 275 283 279 277 278 273 266 266 264 272 274 275 265 271 262 281 302 337 45 65 134 46 64 47 61 132 59 132 137 109 59 118 132 129 112 105 115 118
315 313 311 307 302 293 286 285 279 276 267 261 273 267 271 271 270 262 266 266 264 243 180 274 4 106 329 343 327 232 145 45 48 83 104 126 164 38 82 129 131 127 108 105 98
318 315 310 307 299 290 283 276 277 278 268 259 256 257 261 266 257 255 256 255 255 234 173 265 171 313 328 335 349 171 328 20 37 68 94 70 105 53 42 103 141 131 116 111 99
313 312 307 303 294 291 280 275 280 275 267 266 256 256 259 260 256 236 241 253 255 244 212 219 261 298 300 324 334 64 358 22 25 75 71 53 112 73 26 23 80 123 112 112 109
307 307 305 297 298 291 280 274 272 272 263 261 255 257 255 258 257 252 244 253 260 246 224 229 281 279 289 294 305 5 348 15 26 86 4 35 9 43 24 15 22 70 99 129 124
303 302 301 299 293 284 283 271 270 266 254 262 250 260 252 246 264 246 244 253 256 251 237 222 261 263 281 295 295 326 332 338 354 2 109 50 47 36 24 18 8 10 40 91 141
300 297 294 310 293 274 268 265 260 254 254 257 249 239 236 244 254 248 242 252 255 253 247 227 262 270 279 299 291 318 339 338 343 339 354 10 35 34 344 342 344 357 15 44 87
296 289 297 296 292 279 261 251 251 250 262 254 240 231 233 238 250 242 231 223 244 229 202 184 223 268 277 284 295 309 328 321 329 344 343 12 24 351 348 336 334 346 17 41 61
294 290 316 283 279 263 251 242 246 256 251 256 242 231 233 232 249 245 243 237 206 244 199 180 202 181 269 264 279 301 288 298 314 315 335 10 347 4 352 349 357 4 35 60 75
289 313 297 285 268 253 239 235 245 248 254 250 238 228 234 234 249 246 243 239 240 237 225 182 226 243 268 278 262 309 307 297 298 322 313 350 358 21 7 5 16 14 29 42 52
299 290 297 289 264 245 233 232 245 251 256 247 237 232 231 234 243 242 243 244 245 237 245 208 189 280 270 273 279 271 292 327 338 322 319 344 336 329 3 15 20 26 31 53 51
295 279 297 283 253 237 228 230 240 252 251 247 242 236 232 234 239 243 248 250 234 208 246 189 275 53 272 275 285 288 299 288 295 304 312 327 349 351 352 360 29 28 39 35 39
275 274 294 258 241 229 225 230 245 242 251 254 250 243 238 236 240 246 246 249 181 164 192 227 285 80 300 279 255 258 280 303 318 354 329 311 317 347 350 3 9 19 35 16 8
269 283 277 246 235 231 228 229 235 239 244 249 247 242 242 239 240 244 253 251 193 195 195 202 279 69 27 302 276 284 298 289 294 310 321 308 339 1 2 360 2 17 9 356 352
263 266 264 241 238 235 226 224 231 246 243 243 243 242 237 235 241 243 246 248 213 198 224 230 255 249 276 294 338 310 324 313 293 305 331 339 345 354 351 351 356 356 1 352 344
260 261 260 235 223 226 234 236 231 238 241 246 240 229 231 236 236 243 233 201 203 226 227 229 262 255 275 286 291 308 326 332 309 309 327 321 330 356 5 4 2 8 9 4 353
255 259 253 245 233 223 222 224 230 236 240 236 228 233 228 231 235 241 205 174 197 220 229 230 263 267 280 285 307 318 327 320 319 312 282 315 349 4 30 27 24 13 11 359 349
266 261 251 246 234 222 222 225 234 241 239 228 235 239 227 215 229 242 232 153 196 168 229 241 261 267 289 292 310 322 317 307 306 319 316 331 355 29 39 46 32 25 18 4 348